{"data":{"norad_id":53936,"intl_designator":"2022-119BC","name":"STARLINK-4791","alt_names":[],"object_type":"PAYLOAD","status":"ACTIVE","operator":null,"country":"US","launch_date":"2022-09-24","launch_site_code":"AFETR","launch_vehicle":null,"mission":null,"orbit_class":"UNKNOWN","rcs_meters":null,"size_class":null,"mass_kg":null,"dimensions":null,"purposes":["comms"],"wikipedia_slug":null,"has_3d_model":false,"image_url":null,"decayed_at":null,"tle_current":{"epoch":"2026-09-19T22:57:54.897696Z","epoch_age_seconds":133955,"freshness":"FRESH","line1":"1 53936U 22119BC  26262.95688539  .00000047  00000+0  13271-4 0  9990","line2":"2 53936  53.1589 132.3018 0001231  93.4951 266.6191 15.31697459221573","mean_motion":15.31697459,"eccentricity":0.0001231,"inclination_deg":53.1589,"raan_deg":132.3018,"arg_perigee_deg":93.4951,"mean_anomaly_deg":266.6191,"bstar":1.3271e-5,"rev_number":22157,"period_min":94.013343923684,"perigee_km":469.90447213435,"apogee_km":471.59066751544,"semimajor_km":6848.8845698249,"source":"CELESTRAK","updated_at":"2026-09-21T09:00:33.038544Z"}}}